QPF
0.00 0.00 0.01 0.01 0.01 0.01 0.01 0.01 0.01 0.01 0.01 0.01 0.01 0.01 0.01 0.01 0.01 0.00 0.00 0.01 0.01 0.01 0.02 0.03 0.03 0.04 0.03 0.01 0.00 0.00 0.00 0.00 0.00 0.00 0.00 0.00 0.00 0.00 0.01 0.01 0.01 0.02 0.02
0.00 0.00 0.01 0.01 0.01 0.01 0.01 0.01 0.01 0.01 0.01 0.00 0.01 0.01 0.00 0.00 0.00 0.00 0.00 0.01 0.02 0.02 0.03 0.04 0.04 0.03 0.02 0.00 0.00 0.00 0.00 0.00 0.00 0.00 0.00 0.00 0.00 0.00 0.00 0.00 0.00 0.00 0.01
0.00 0.00 0.00 0.01 0.01 0.01 0.01 0.01 0.01 0.01 0.01 0.00 0.00 0.00 0.00 0.00 0.00 0.00 0.01 0.01 0.02 0.02 0.03 0.04 0.04 0.02 0.01 0.00 0.00 0.00 0.00 0.00 0.00 0.00 0.00 0.00 0.00 0.00 0.01 0.00 0.00 0.01 0.01
0.00 0.00 0.00 0.00 0.01 0.01 0.01 0.01 0.01 0.01 0.00 0.00 0.00 0.00 0.00 0.00 0.00 0.01 0.01 0.01 0.01 0.02 0.03 0.03 0.02 0.01 0.00 0.00 0.00 0.00 0.00 0.00 0.00 0.00 0.00 0.00 0.01 0.02 0.02 0.01 0.01 0.01 0.01
0.00 0.00 0.00 0.01 0.01 0.01 0.01 0.01 0.01 0.00 0.00 0.00 0.00 0.00 0.00 0.00 0.00 0.01 0.01 0.01 0.02 0.02 0.01 0.02 0.01 0.00 0.00 0.00 0.00 0.00 0.00 0.00 0.00 0.00 0.00 0.00 0.01 0.02 0.02 0.02 0.02 0.03 0.03
0.00 0.00 0.00 0.01 0.01 0.01 0.01 0.01 0.01 0.01 0.00 0.00 0.00 0.00 0.00 0.00 0.01 0.01 0.01 0.01 0.01 0.01 0.01 0.01 0.00 0.00 0.00 0.00 0.00 0.00 0.00 0.00 0.00 0.00 0.00 0.01 0.02 0.04 0.04 0.03 0.04 0.04 0.05
0.00 0.00 0.00 0.01 0.01 0.01 0.01 0.01 0.00 0.01 0.00 0.00 0.00 0.00 0.00 0.00 0.01 0.00 0.01 0.00 0.00 0.01 0.01 0.01 0.00 0.00 0.00 0.00 0.00 0.00 0.00 0.00 0.00 0.00 0.01 0.01 0.03 0.06 0.05 0.03 0.03 0.04 0.04
0.00 0.00 0.01 0.01 0.01 0.01 0.01 0.01 0.01 0.00 0.00 0.00 0.00 0.00 0.00 0.00 0.00 0.00 0.00 0.00 0.00 0.00 0.00 0.00 0.00 0.00 0.00 0.00 0.00 0.00 0.00 0.00 0.00 0.00 0.00 0.01 0.02 0.03 0.02 0.01 0.01 0.01 0.01
0.00 0.00 0.00 0.01 0.01 0.01 0.01 0.01 0.01 0.01 0.00 0.00 0.00 0.00 0.00 0.00 0.00 0.00 0.00 0.00 0.00 0.00 0.00 0.00 0.00 0.00 0.00 0.00 0.00 0.00 0.00 0.00 0.00 0.00 0.00 0.01 0.01 0.02 0.01 0.01 0.01 0.00 0.00
0.00 0.00 0.00 0.00 0.00 0.00 0.00 0.01 0.00 0.00 0.00 0.00 0.00 0.00 0.00 0.00 0.00 0.00 0.00 0.00 0.00 0.00 0.00 0.00 0.00 0.00 0.00 0.00 0.00 0.00 0.00 0.00 0.00 0.00 0.00 0.00 0.01 0.01 0.00 0.00 0.00 0.00 0.00
0.01 0.00 0.00 0.00 0.00 0.00 0.00 0.00 0.00 0.00 0.00 0.00 0.00 0.00 0.00 0.00 0.00 0.00 0.00 0.00 0.00 0.00 0.00 0.00 0.00 0.00 0.00 0.00 0.00 0.00 0.00 0.00 0.00 0.00 0.00 0.00 0.01 0.00 0.00 0.00 0.00 0.00 0.00
0.01 0.00 0.00 0.00 0.00 0.00 0.00 0.00 0.00 0.00 0.00 0.00 0.00 0.00 0.00 0.00 0.00 0.00 0.00 0.00 0.00 0.00 0.00 0.00 0.00 0.00 0.00 0.00 0.00 0.00 0.00 0.00 0.00 0.00 0.00 0.00 0.00 0.00 0.00 0.00 0.00 0.00 0.00
0.00 0.01 0.00 0.00 0.00 0.00 0.00 0.00 0.00 0.00 0.00 0.00 0.00 0.00 0.00 0.00 0.00 0.00 0.00 0.00 0.00 0.00 0.00 0.00 0.00 0.00 0.00 0.00 0.00 0.00 0.00 0.00 0.00 0.00 0.00 0.00 0.00 0.00 0.00 0.00 0.00 0.00 0.00
0.00 0.00 0.00 0.00 0.00 0.00 0.00 0.00 0.00 0.00 0.00 0.00 0.00 0.00 0.00 0.00 0.00 0.00 0.00 0.00 0.00 0.00 0.00 0.00 0.00 0.00 0.00 0.00 0.00 0.00 0.00 0.00 0.00 0.00 0.00 0.00 0.00 0.00 0.00 0.00 0.00 0.00 0.00
0.00 0.00 0.00 0.00 0.00 0.00 0.00 0.00 0.00 0.00 0.00 0.00 0.00 0.00 0.00 0.00 0.00 0.00 0.00 0.00 0.00 0.00 0.00 0.00 0.00 0.00 0.00 0.00 0.00 0.00 0.00 0.00 0.00 0.00 0.00 0.00 0.00 0.00 0.00 0.00 0.00 0.00 0.00
0.00 0.00 0.00 0.00 0.00 0.00 0.00 0.00 0.00 0.00 0.00 0.00 0.00 0.00 0.00 0.00 0.00 0.00 0.00 0.00 0.00 0.00 0.00 0.00 0.00 0.00 0.00 0.00 0.00 0.00 0.00 0.00 0.00 0.00 0.00 0.00 0.00 0.00 0.00 0.00 0.00 0.00 0.00
0.00 0.00 0.00 0.00 0.00 0.00 0.00 0.00 0.00 0.00 0.00 0.00 0.00 0.00 0.00 0.00 0.00 0.00 0.00 0.00 0.00 0.00 0.00 0.00 0.00 0.00 0.00 0.00 0.00 0.00 0.00 0.00 0.00 0.00 0.00 0.00 0.00 0.00 0.00 0.00 0.00 0.00 0.00
0.00 0.00 0.00 0.00 0.00 0.00 0.01 0.01 0.01 0.00 0.00 0.00 0.00 0.00 0.00 0.00 0.00 0.00 0.00 0.00 0.00 0.00 0.00 0.00 0.00 0.00 0.00 0.00 0.00 0.00 0.00 0.00 0.00 0.00 0.00 0.00 0.00 0.00 0.00 0.00 0.00 0.00 0.00
0.00 0.00 0.00 0.00 0.00 0.01 0.01 0.01 0.01 0.01 0.00 0.00 0.00 0.00 0.00 0.00 0.00 0.00 0.00 0.00 0.00 0.00 0.00 0.00 0.00 0.00 0.00 0.00 0.00 0.00 0.00 0.00 0.00 0.00 0.00 0.00 0.00 0.00 0.00 0.00 0.00 0.00 0.00
0.00 0.00 0.00 0.00 0.00 0.01 0.01 0.01 0.01 0.00 0.00 0.00 0.00 0.01 0.01 0.01 0.01 0.00 0.00 0.00 0.00 0.00 0.00 0.00 0.00 0.00 0.00 0.00 0.00 0.00 0.00 0.00 0.00 0.00 0.00 0.00 0.00 0.00 0.00 0.00 0.00 0.00 0.00
0.00 0.00 0.00 0.00 0.00 0.00 0.00 0.00 0.00 0.00 0.01 0.00 0.01 0.02 0.02 0.02 0.02 0.01 0.00 0.00 0.00 0.00 0.00 0.00 0.00 0.00 0.00 0.00 0.00 0.00 0.00 0.00 0.00 0.00 0.00 0.00 0.00 0.00 0.00 0.00 0.00 0.00 0.00
0.00 0.00 0.00 0.00 0.00 0.00 0.00 0.00 0.00 0.01 0.01 0.01 0.01 0.01 0.01 0.01 0.02 0.01 0.01 0.01 0.01 0.01 0.00 0.00 0.00 0.00 0.00 0.00 0.00 0.00 0.00 0.00 0.00 0.00 0.00 0.00 0.00 0.00 0.00 0.00 0.00 0.00 0.00
0.00 0.00 0.00 0.00 0.00 0.00 0.00 0.00 0.00 0.00 0.00 0.00 0.00 0.00 0.01 0.01 0.02 0.02 0.02 0.02 0.02 0.03 0.02 0.02 0.02 0.01 0.01 0.01 0.01 0.01 0.01 0.01 0.01 0.01 0.00 0.00 0.00 0.00 0.00 0.00 0.00 0.00 0.00
0.00 0.00 0.00 0.00 0.00 0.00 0.00 0.00 0.00 0.00 0.00 0.00 0.00 0.00 0.01 0.01 0.02 0.03 0.03 0.04 0.04 0.04 0.03 0.04 0.05 0.04 0.04 0.03 0.03 0.03 0.02 0.02 0.02 0.02 0.01 0.01 0.01 0.00 0.00 0.00 0.00 0.00 0.00
0.00 0.00 0.00 0.00 0.00 0.00 0.00 0.00 0.00 0.00 0.00 0.00 0.00 0.00 0.00 0.01 0.01 0.02 0.03 0.04 0.05 0.05 0.06 0.07 0.07 0.08 0.07 0.06 0.06 0.05 0.04 0.04 0.03 0.02 0.02 0.01 0.01 0.01 0.00 0.00 0.00 0.00 0.00
0.00 0.00 0.00 0.00 0.00 0.00 0.00 0.00 0.00 0.00 0.00 0.00 0.00 0.00 0.00 0.00 0.01 0.02 0.03 0.04 0.06 0.07 0.09 0.10 0.11 0.12 0.11 0.10 0.08 0.07 0.07 0.06 0.06 0.06 0.05 0.04 0.03 0.02 0.02 0.01 0.00 0.00 0.00
MSLP
1012.38 1012.52 1012.80 1013.19 1013.63 1014.08 1014.48 1014.81 1015.07 1015.27 1015.46 1015.65 1015.87 1016.13 1016.41 1016.71 1016.99 1017.23 1017.42 1017.55 1017.65 1017.73 1017.82 1017.91 1018.03 1018.16 1018.28 1018.39 1018.47 1018.51 1018.52 1018.51 1018.48 1018.45 1018.43 1018.42 1018.43 1018.44 1018.45 1018.46 1018.46 1018.47 1018.47
1012.32 1012.49 1012.80 1013.22 1013.70 1014.19 1014.63 1015.00 1015.29 1015.52 1015.71 1015.90 1016.11 1016.35 1016.60 1016.87 1017.11 1017.33 1017.50 1017.63 1017.74 1017.85 1017.97 1018.11 1018.27 1018.44 1018.59 1018.71 1018.79 1018.82 1018.80 1018.75 1018.70 1018.65 1018.63 1018.63 1018.65 1018.68 1018.71 1018.74 1018.75 1018.75 1018.74
1012.24 1012.44 1012.79 1013.24 1013.75 1014.27 1014.76 1015.18 1015.52 1015.79 1016.01 1016.21 1016.41 1016.61 1016.83 1017.03 1017.23 1017.39 1017.53 1017.64 1017.76 1017.89 1018.05 1018.24 1018.45 1018.66 1018.85 1018.98 1019.06 1019.06 1019.02 1018.94 1018.86 1018.80 1018.77 1018.78 1018.83 1018.89 1018.95 1019.00 1019.02 1019.02 1019.01
1012.17 1012.41 1012.78 1013.26 1013.80 1014.35 1014.88 1015.35 1015.74 1016.06 1016.32 1016.53 1016.73 1016.91 1017.08 1017.23 1017.36 1017.47 1017.56 1017.65 1017.76 1017.91 1018.11 1018.35 1018.61 1018.86 1019.08 1019.22 1019.29 1019.28 1019.21 1019.10 1019.00 1018.92 1018.90 1018.92 1018.98 1019.07 1019.16 1019.23 1019.28 1019.30 1019.29
1012.15 1012.43 1012.82 1013.30 1013.86 1014.43 1014.99 1015.49 1015.93 1016.29 1016.59 1016.84 1017.04 1017.21 1017.35 1017.46 1017.54 1017.59 1017.65 1017.72 1017.82 1017.99 1018.21 1018.49 1018.78 1019.07 1019.30 1019.46 1019.52 1019.49 1019.40 1019.27 1019.15 1019.06 1019.04 1019.07 1019.15 1019.26 1019.37 1019.47 1019.54 1019.58 1019.59
1012.22 1012.52 1012.91 1013.40 1013.94 1014.51 1015.07 1015.60 1016.06 1016.46 1016.80 1017.08 1017.31 1017.49 1017.62 1017.71 1017.77 1017.80 1017.83 1017.89 1018.00 1018.17 1018.41 1018.70 1019.02 1019.31 1019.55 1019.70 1019.75 1019.71 1019.60 1019.46 1019.33 1019.24 1019.22 1019.26 1019.36 1019.48 1019.61 1019.73 1019.82 1019.88 1019.91
1012.40 1012.70 1013.09 1013.55 1014.06 1014.61 1015.15 1015.66 1016.14 1016.56 1016.93 1017.24 1017.50 1017.71 1017.87 1017.97 1018.04 1018.08 1018.12 1018.18 1018.30 1018.48 1018.72 1019.01 1019.32 1019.60 1019.82 1019.95 1019.99 1019.93 1019.81 1019.67 1019.55 1019.47 1019.46 1019.52 1019.62 1019.76 1019.90 1020.03 1020.13 1020.20 1020.25
1012.68 1012.97 1013.33 1013.75 1014.22 1014.71 1015.21 1015.69 1016.15 1016.58 1016.96 1017.31 1017.61 1017.86 1018.07 1018.22 1018.33 1018.41 1018.48 1018.57 1018.69 1018.87 1019.10 1019.37 1019.65 1019.90 1020.08 1020.18 1020.20 1020.13 1020.02 1019.89 1019.78 1019.74 1019.75 1019.83 1019.95 1020.10 1020.25 1020.38 1020.48 1020.56 1020.62
1013.03 1013.30 1013.63 1013.99 1014.40 1014.83 1015.26 1015.70 1016.12 1016.53 1016.92 1017.29 1017.63 1017.94 1018.20 1018.42 1018.59 1018.73 1018.84 1018.97 1019.11 1019.29 1019.49 1019.73 1019.95 1020.15 1020.29 1020.35 1020.34 1020.27 1020.17 1020.07 1020.01 1020.00 1020.06 1020.17 1020.32 1020.49 1020.64 1020.77 1020.86 1020.94 1021.00
1013.41 1013.65 1013.93 1014.25 1014.59 1014.95 1015.33 1015.70 1016.08 1016.46 1016.84 1017.22 1017.58 1017.93 1018.25 1018.53 1018.77 1018.97 1019.14 1019.30 1019.46 1019.63 1019.81 1020.00 1020.17 1020.30 1020.39 1020.41 1020.38 1020.32 1020.24 1020.19 1020.18 1020.23 1020.35 1020.51 1020.70 1020.88 1021.05 1021.17 1021.27 1021.33 1021.38
1013.75 1013.97 1014.22 1014.49 1014.78 1015.08 1015.39 1015.71 1016.04 1016.39 1016.74 1017.11 1017.49 1017.86 1018.21 1018.54 1018.83 1019.09 1019.30 1019.50 1019.67 1019.84 1019.99 1020.14 1020.25 1020.34 1020.37 1020.37 1020.33 1020.27 1020.23 1020.23 1020.28 1020.40 1020.58 1020.80 1021.03 1021.26 1021.44 1021.58 1021.66 1021.72 1021.75
1014.01 1014.21 1014.43 1014.67 1014.92 1015.18 1015.45 1015.73 1016.02 1016.33 1016.66 1017.01 1017.37 1017.74 1018.10 1018.45 1018.77 1019.05 1019.30 1019.52 1019.70 1019.87 1020.00 1020.12 1020.20 1020.25 1020.26 1020.24 1020.20 1020.17 1020.17 1020.22 1020.34 1020.52 1020.76 1021.04 1021.32 1021.58 1021.78 1021.93 1022.03 1022.08 1022.09
1014.14 1014.34 1014.55 1014.77 1015.00 1015.24 1015.49 1015.75 1016.02 1016.30 1016.59 1016.91 1017.24 1017.59 1017.93 1018.27 1018.59 1018.88 1019.14 1019.37 1019.56 1019.73 1019.86 1019.97 1020.05 1020.09 1020.10 1020.09 1020.07 1020.07 1020.11 1020.21 1020.38 1020.61 1020.90 1021.22 1021.54 1021.83 1022.07 1022.24 1022.35 1022.40 1022.41
1014.13 1014.33 1014.53 1014.75 1014.98 1015.23 1015.48 1015.74 1016.00 1016.26 1016.53 1016.82 1017.11 1017.41 1017.72 1018.02 1018.32 1018.60 1018.85 1019.08 1019.29 1019.47 1019.63 1019.75 1019.85 1019.92 1019.96 1019.98 1020.01 1020.05 1020.12 1020.25 1020.44 1020.70 1021.02 1021.36 1021.70 1022.01 1022.27 1022.47 1022.60 1022.66 1022.68
1013.97 1014.17 1014.38 1014.61 1014.85 1015.12 1015.39 1015.66 1015.93 1016.19 1016.45 1016.70 1016.96 1017.22 1017.48 1017.74 1017.99 1018.25 1018.49 1018.72 1018.95 1019.16 1019.35 1019.53 1019.68 1019.80 1019.90 1019.98 1020.05 1020.13 1020.24 1020.38 1020.58 1020.84 1021.15 1021.48 1021.82 1022.14 1022.41 1022.63 1022.78 1022.87 1022.91
1013.68 1013.87 1014.08 1014.33 1014.59 1014.88 1015.18 1015.48 1015.77 1016.04 1016.30 1016.54 1016.77 1016.99 1017.21 1017.42 1017.65 1017.87 1018.11 1018.35 1018.59 1018.85 1019.09 1019.34 1019.56 1019.77 1019.94 1020.09 1020.22 1020.34 1020.46 1020.61 1020.80 1021.03 1021.29 1021.59 1021.91 1022.21 1022.49 1022.72 1022.90 1023.02 1023.09
1013.29 1013.48 1013.69 1013.94 1014.22 1014.53 1014.85 1015.18 1015.50 1015.79 1016.06 1016.29 1016.51 1016.70 1016.90 1017.08 1017.28 1017.49 1017.73 1017.98 1018.26 1018.56 1018.87 1019.18 1019.49 1019.78 1020.04 1020.26 1020.45 1020.60 1020.74 1020.89 1021.04 1021.22 1021.44 1021.69 1021.96 1022.24 1022.51 1022.75 1022.96 1023.12 1023.22
1012.86 1013.03 1013.24 1013.48 1013.77 1014.09 1014.43 1014.78 1015.11 1015.42 1015.70 1015.94 1016.16 1016.35 1016.53 1016.71 1016.90 1017.11 1017.35 1017.62 1017.93 1018.27 1018.64 1019.02 1019.41 1019.77 1020.10 1020.39 1020.63 1020.82 1020.98 1021.11 1021.24 1021.38 1021.54 1021.74 1021.97 1022.22 1022.48 1022.73 1022.96 1023.16 1023.30
1012.46 1012.60 1012.78 1013.01 1013.29 1013.60 1013.94 1014.29 1014.63 1014.95 1015.23 1015.48 1015.70 1015.90 1016.08 1016.27 1016.47 1016.69 1016.95 1017.24 1017.58 1017.95 1018.36 1018.79 1019.22 1019.64 1020.03 1020.37 1020.66 1020.88 1021.05 1021.19 1021.30 1021.42 1021.55 1021.71 1021.91 1022.15 1022.40 1022.66 1022.91 1023.14 1023.34
1012.13 1012.24 1012.39 1012.59 1012.84 1013.13 1013.44 1013.77 1014.09 1014.40 1014.67 1014.92 1015.14 1015.34 1015.54 1015.75 1015.97 1016.21 1016.49 1016.80 1017.15 1017.54 1017.97 1018.41 1018.87 1019.32 1019.73 1020.11 1020.42 1020.68 1020.88 1021.03 1021.16 1021.28 1021.41 1021.58 1021.78 1022.01 1022.27 1022.55 1022.83 1023.09 1023.32
1011.92 1012.00 1012.11 1012.27 1012.48 1012.72 1012.99 1013.27 1013.55 1013.81 1014.06 1014.28 1014.49 1014.70 1014.91 1015.14 1015.38 1015.64 1015.94 1016.26 1016.62 1017.01 1017.43 1017.86 1018.31 1018.75 1019.18 1019.56 1019.90 1020.19 1020.42 1020.62 1020.79 1020.95 1021.13 1021.33 1021.56 1021.82 1022.11 1022.42 1022.73 1023.02 1023.27
1011.86 1011.89 1011.97 1012.09 1012.24 1012.42 1012.63 1012.84 1013.04 1013.24 1013.43 1013.61 1013.79 1013.98 1014.19 1014.43 1014.69 1014.97 1015.28 1015.62 1015.97 1016.35 1016.74 1017.15 1017.57 1017.98 1018.39 1018.77 1019.13 1019.45 1019.73 1019.99 1020.23 1020.47 1020.72 1020.99 1021.28 1021.61 1021.94 1022.29 1022.62 1022.93 1023.20
1011.94 1011.94 1011.97 1012.04 1012.14 1012.25 1012.38 1012.49 1012.60 1012.71 1012.81 1012.92 1013.05 1013.21 1013.41 1013.65 1013.92 1014.22 1014.54 1014.88 1015.23 1015.59 1015.96 1016.33 1016.71 1017.10 1017.48 1017.85 1018.22 1018.57 1018.91 1019.24 1019.57 1019.91 1020.26 1020.63 1021.01 1021.40 1021.79 1022.18 1022.54 1022.86 1023.13
1012.14 1012.11 1012.10 1012.12 1012.16 1012.19 1012.22 1012.23 1012.24 1012.23 1012.23 1012.25 1012.31 1012.42 1012.59 1012.81 1013.09 1013.40 1013.74 1014.09 1014.45 1014.81 1015.16 1015.51 1015.87 1016.22 1016.59 1016.96 1017.34 1017.72 1018.12 1018.53 1018.95 1019.39 1019.85 1020.32 1020.79 1021.26 1021.70 1022.12 1022.49 1022.81 1023.07
1012.40 1012.35 1012.31 1012.28 1012.25 1012.21 1012.14 1012.04 1011.92 1011.80 1011.69 1011.61 1011.58 1011.63 1011.77 1011.97 1012.25 1012.57 1012.93 1013.31 1013.69 1014.07 1014.43 1014.79 1015.14 1015.49 1015.85 1016.23 1016.63 1017.05 1017.50 1017.98 1018.49 1019.02 1019.57 1020.13 1020.68 1021.20 1021.69 1022.12 1022.49 1022.80 1023.03
1012.70 1012.62 1012.55 1012.48 1012.38 1012.26 1012.09 1011.89 1011.65 1011.41 1011.18 1011.01 1010.90 1010.89 1010.98 1011.16 1011.44 1011.78 1012.17 1012.59 1013.02 1013.43 1013.84 1014.23 1014.61 1014.99 1015.38 1015.79 1016.22 1016.68 1017.17 1017.70 1018.27 1018.87 1019.49 1020.10 1020.70 1021.25 1021.75 1022.19 1022.54 1022.81 1023.00
Thickness
5774 5772 5765 5762 5760 5758 5756 5754 5752 5750 5748 5746 5744 5742 5740 5738 5736 5735 5733 5732 5731 5730 5728 5727 5725 5724 5723 5721 5720 5719 5718 5717 5716 5715 5714 5714 5713 5712 5711 5710 5710 5710 5707
5775 5770 5763 5760 5758 5755 5753 5751 5749 5746 5744 5742 5740 5738 5736 5734 5732 5731 5729 5728 5727 5726 5724 5722 5721 5719 5718 5716 5715 5714 5713 5712 5711 5710 5710 5709 5708 5707 5706 5705 5705 5705 5703
5771 5767 5760 5757 5754 5752 5750 5748 5745 5742 5740 5738 5736 5733 5732 5730 5728 5727 5726 5725 5723 5722 5720 5718 5716 5714 5713 5711 5710 5709 5708 5707 5706 5706 5706 5708 5705 5702 5701 5700 5699 5699 5698
5767 5763 5758 5753 5751 5749 5746 5744 5741 5738 5736 5733 5731 5729 5728 5726 5724 5723 5722 5721 5719 5717 5715 5713 5711 5709 5708 5706 5705 5704 5703 5702 5701 5702 5704 5703 5701 5697 5696 5695 5695 5694 5693
5761 5759 5754 5750 5747 5745 5743 5740 5737 5734 5731 5729 5727 5725 5723 5722 5720 5719 5718 5717 5715 5712 5710 5708 5706 5704 5702 5701 5700 5699 5698 5696 5696 5698 5698 5697 5695 5692 5691 5690 5689 5689 5688
5757 5755 5749 5745 5743 5741 5738 5736 5733 5730 5727 5725 5722 5720 5719 5717 5716 5715 5713 5712 5709 5707 5705 5703 5701 5699 5697 5696 5695 5693 5692 5692 5693 5694 5693 5691 5690 5687 5685 5684 5683 5682 5681
5752 5750 5744 5740 5738 5736 5734 5731 5729 5726 5723 5720 5718 5716 5714 5713 5711 5709 5708 5706 5704 5702 5700 5698 5696 5694 5692 5691 5690 5688 5687 5687 5690 5688 5687 5685 5682 5680 5679 5678 5676 5675 5674
5746 5744 5739 5735 5733 5731 5729 5726 5724 5721 5718 5716 5713 5711 5710 5708 5706 5704 5702 5700 5699 5697 5695 5693 5691 5689 5687 5686 5685 5683 5682 5682 5682 5682 5680 5678 5675 5673 5672 5670 5669 5668 5666
5741 5739 5735 5731 5728 5725 5724 5721 5719 5717 5714 5711 5709 5707 5705 5703 5701 5698 5697 5695 5693 5692 5690 5688 5686 5684 5682 5681 5679 5678 5677 5676 5678 5676 5674 5672 5668 5666 5665 5663 5662 5660 5659
5735 5733 5731 5728 5726 5723 5720 5717 5714 5712 5709 5707 5704 5702 5700 5697 5695 5693 5692 5690 5688 5686 5685 5683 5681 5679 5677 5676 5674 5673 5672 5671 5673 5671 5669 5665 5661 5660 5658 5656 5654 5653 5651
5727 5728 5726 5724 5722 5720 5717 5713 5710 5707 5704 5702 5699 5697 5695 5694 5692 5689 5688 5685 5683 5681 5680 5678 5676 5674 5672 5670 5669 5668 5667 5669 5668 5666 5662 5657 5655 5653 5651 5649 5647 5645 5644
5718 5720 5721 5720 5718 5715 5712 5709 5707 5704 5702 5700 5698 5695 5694 5692 5690 5687 5683 5681 5679 5677 5675 5673 5671 5669 5668 5668 5665 5663 5665 5664 5663 5660 5655 5651 5649 5646 5644 5641 5639 5638 5636
5714 5714 5715 5715 5713 5711 5708 5707 5705 5703 5700 5698 5697 5694 5692 5689 5686 5683 5681 5677 5675 5673 5672 5668 5667 5667 5666 5665 5664 5662 5661 5660 5658 5655 5649 5645 5643 5640 5637 5635 5632 5630 5629
5709 5709 5709 5709 5708 5707 5705 5703 5702 5700 5698 5696 5693 5691 5689 5687 5684 5682 5680 5677 5674 5672 5669 5667 5665 5664 5662 5661 5660 5658 5656 5654 5652 5649 5643 5639 5637 5634 5631 5628 5625 5623 5621
5704 5705 5704 5703 5703 5702 5701 5700 5698 5697 5695 5693 5690 5688 5686 5684 5682 5680 5678 5674 5672 5670 5667 5664 5663 5661 5658 5657 5655 5653 5651 5648 5646 5642 5638 5633 5631 5628 5624 5621 5619 5616 5614
5701 5701 5701 5700 5699 5698 5698 5697 5695 5694 5692 5690 5688 5686 5683 5682 5680 5678 5675 5672 5670 5667 5664 5661 5660 5657 5655 5652 5650 5648 5645 5642 5640 5637 5634 5628 5624 5621 5618 5615 5613 5610 5608
5700 5700 5699 5698 5697 5695 5695 5694 5692 5691 5689 5688 5686 5683 5681 5679 5677 5674 5673 5670 5667 5663 5661 5658 5655 5653 5650 5647 5645 5642 5640 5637 5633 5630 5627 5624 5619 5615 5612 5609 5606 5603 5601
5697 5697 5698 5696 5695 5694 5692 5690 5689 5688 5686 5685 5684 5682 5679 5677 5674 5671 5670 5668 5664 5660 5657 5654 5652 5649 5646 5643 5641 5637 5634 5630 5628 5625 5621 5617 5614 5610 5606 5602 5599 5596 5593
5695 5695 5695 5694 5693 5692 5689 5687 5686 5685 5684 5683 5681 5680 5678 5675 5672 5669 5667 5665 5661 5658 5654 5651 5648 5646 5642 5638 5636 5631 5629 5625 5622 5618 5616 5612 5608 5604 5601 5595 5592 5589 5586
5691 5693 5693 5693 5691 5689 5686 5683 5682 5681 5681 5679 5678 5677 5675 5673 5669 5666 5665 5662 5659 5655 5651 5648 5643 5640 5638 5633 5629 5625 5622 5619 5615 5613 5610 5606 5601 5597 5594 5590 5586 5582 5578
5684 5686 5688 5688 5688 5685 5683 5680 5678 5678 5678 5676 5675 5674 5672 5670 5667 5664 5662 5659 5656 5653 5650 5646 5640 5635 5631 5627 5622 5617 5614 5611 5610 5607 5604 5601 5596 5592 5587 5584 5580 5576 5572
5678 5680 5682 5683 5683 5682 5681 5679 5678 5676 5675 5674 5672 5670 5669 5667 5665 5662 5659 5657 5653 5650 5646 5643 5638 5632 5627 5621 5620 5614 5611 5608 5604 5602 5599 5595 5592 5586 5582 5577 5574 5569 5566
5670 5673 5674 5676 5677 5677 5676 5674 5672 5670 5670 5669 5669 5669 5668 5665 5662 5659 5656 5653 5650 5646 5644 5640 5635 5629 5624 5617 5616 5614 5612 5613 5607 5597 5593 5589 5585 5581 5576 5571 5566 5561 5558
5661 5664 5665 5668 5669 5670 5669 5668 5667 5666 5666 5669 5669 5667 5665 5661 5658 5656 5652 5649 5646 5642 5640 5636 5631 5627 5621 5614 5608 5606 5606 5608 5603 5595 5585 5581 5577 5573 5569 5563 5558 5553 5549
5651 5653 5655 5658 5660 5661 5662 5662 5661 5662 5664 5665 5664 5663 5661 5658 5655 5652 5648 5644 5641 5638 5635 5631 5626 5621 5618 5613 5605 5599 5593 5589 5591 5592 5585 5574 5566 5563 5559 5555 5550 5545 5540
5641 5643 5645 5648 5650 5652 5653 5655 5655 5656 5656 5656 5657 5657 5655 5653 5650 5647 5643 5639 5635 5632 5628 5624 5619 5614 5611 5607 5601 5595 5590 5585 5582 5579 5577 5567 5559 5553 5546 5542 5539 5534 5530